Regional Weather Roundup
Issued by NWS Glasgow, MT

Home | Current Version | Previous Version | Text Only | Print | Product List | Glossary On
Versions: 1 2 3 4 5 6 7 8 9 10 11 12 13 14 15 16 17 18 19 20 21 22 23 24 25 26 27
000
ASUS45 KGGW 251215
RWRGGW
HOURLY WEATHER ROUNDUP FOR NORTHEAST MONTANA
NATIONAL WEATHER SERVICE GLASGOW MONTANA
600 AM MDT SAT OCT 25 2014

NOTE: "FAIR" INDICATES FEW OR NO CLOUDS BELOW 12,000 FEET WITH NO
SIGNIFICANT WEATHER AND/OR OBSTRUCTIONS TO VISISBILITY.

NORTHEAST MONTANA


CITY           SKY/WX    TMP DP  RH WIND       PRES   REMARKS
GLASGOW        MOCLDY    40  31  70 SE6       30.09R
6HR MIN TEMP:  39; 6HR MAX TEMP:  45;

PLENTYWOOD       N/A     36  26  67 NE3         N/A
WOLF POINT     CLOUDY    42  34  73 CALM      30.10S
JORDAN           N/A     32  28  85 CALM      30.09S
WINNETT          N/A     32  32 100 CALM        N/A
SIDNEY         CLOUDY    43  34  70 CALM      30.13R
GLENDIVE       MOCLDY    39  30  70 S7        30.13R
MALTA            N/A     40  34  79 SE2         N/A
SCOBEY           N/A     29  19  66 CALM      30.07

FORT PECK REPORTS


CITY           SKY/WX    TMP DP  RH WIND       PRES   REMARKS
FORT PECK        N/A     47  40  76 E2          N/A
THE PINES        N/A     47  34  60 SW2         N/A

SOUTHEAST MONTANA


CITY           SKY/WX    TMP DP  RH WIND       PRES   REMARKS
BILLINGS       PTCLDY    39  33  79 SW12      30.06F
MILES CITY     MOCLDY    43  33  68 SE3       30.10F
BAKER          MOCLDY    33  28  81 CALM      30.13S
LIVINGSTON     CLEAR     31  29  92 NW6       30.06F

CENTRAL MONTANA


CITY           SKY/WX    TMP DP  RH WIND       PRES   REMARKS
HAVRE          MOCLDY    40  32  73 E6        30.04F
LEWISTOWN      PTCLDY    38  35  89 SE7       30.03F
GREAT FALLS    MOCLDY    41  38  89 NE3       29.99F
CUT BANK       CLOUDY    40  31  70 SE6       30.00F
HELENA         PTCLDY    37  35  92 CALM      30.01F
BUTTE          CLEAR     29  28  96 SE5       30.04F
BOZEMAN        FOG       28  27  96 SE3       30.03F VSB 1/4

WESTERN MONTANA


CITY           SKY/WX    TMP DP  RH WIND       PRES   REMARKS
MISSOULA       MOCLDY    41  41 100 SE5       29.96F FOG
KALISPELL      NOT AVBL

NORTH DAKOTA


CITY           SKY/WX    TMP DP  RH WIND       PRES   REMARKS
WILLISTON      MOCLDY    35  29  78 CALM      30.11S
DICKINSON      PTCLDY    45  29  53 W6        30.10R
MINOT          CLEAR     40  30  67 W10       30.10R
BISMARCK       CLOUDY    41  32  70 CALM      30.12R

SOUTHERN SASKATCHEWAN


CITY           SKY/WX    TMP DP  RH WIND       PRES   REMARKS
REGINA         CLEAR     30  28  93 NW3       30.06S
ESTEVAN        PTCLDY    28  27  93 SW6       30.10R
SWIFT CURRENT  PTCLDY    32  27  80 SW12      30.05R




USA.gov is the U.S. government's official web portal to all federal, state and local government web resources and services.